Location: Rumah Sambob
(2.9167°N, 113.9167°E)
Time: 19:32:52
(UTC+00:00)

Cosmos 1844 Rocket - Pass Details

Date: 06 June 2020
Orbit: 826 x 843 km, 71.0° (Epoch: 11 July)

Event Time Altitude Azimuth Distance (km) Brightness Sun altitude
Rises 21:07:24 0° 332° (NNW) 3,350 5.8 -16.2°
Reaches altitude 10° 21:09:56 10° 325° (NW) 2,418 5.0 -15.7°
Maximum altitude 21:15:08 43° 255° (WSW) 1,150 2.9 -14.5°
Drops below altitude 10° 21:20:21 10° 185° (S) 2,424 4.8 -13.3°
Sets 21:22:55 0° 178° (S) 3,360 5.6 -12.7°
